FW2265 Weather Reports


Display with metric or nautical units.
time (UTC)temp
F
wind
direction
speed
MPH
gust
MPH
rain 1hr
in
rain 24hr
in
rain mn
in
humidity
%
barometer
mb
20260505195222 81 231 0.0 1.0 0.00 0.00 0.00 81 1009.7
20260505195123 81 206 0.0 1.0 0.00 0.00 0.00 81 1009.9
20260505194124 81 192 1.0 6.0 0.00 0.00 0.00 80 1009.9
20260505193221 81 204 2.0 6.0 0.00 0.00 0.00 82 1009.9
20260505192225 79 247 0.0 1.0 0.00 0.00 0.00 84 1010.0
20260505191222 79 220 3.0 8.0 0.00 0.00 0.00 84 1010.1
20260505185224 79 212 2.0 4.0 0.00 0.00 0.00 85 1010.2
20260505184222 78 207 1.0 5.0 0.00 0.00 0.00 86 1010.2
20260505182323 78 223 3.0 6.0 0.00 0.00 0.00 85 1010.4
20260505181322 79 225 0.0 3.0 0.00 0.00 0.00 83 1010.5
20260505180323 79 225 0.0 1.0 0.00 0.00 0.00 83 1010.5
20260505175323 79 196 3.0 5.0 0.00 0.00 0.00 84 1010.5
20260505174324 78 208 1.0 3.0 0.00 0.00 0.00 84 1010.6
20260505173323 78 180 0.0 1.0 0.00 0.00 0.00 84 1010.6
20260505172322 79 194 0.0 2.0 0.00 0.00 0.00 84 1010.7
20260505171325 79 174 0.0 2.0 0.00 0.00 0.00 83 1010.8
20260505170421 78 211 0.0 3.0 0.00 0.00 0.00 82 1010.9
20260505165423 78 193 1.0 4.0 0.00 0.00 0.00 83 1010.8
20260505164421 79 225 0.0 2.0 0.00 0.00 0.00 81 1010.8
20260505164322 79 236 0.0 2.0 0.00 0.00 0.00 82 1010.7
20260505163322 79 180 0.0 1.0 0.00 0.00 0.00 82 1010.7
20260505162322 78 200 1.0 3.0 0.00 0.00 0.00 82 1010.8
20260505161324 78 220 0.0 2.0 0.00 0.00 0.00 81 1010.7
20260505160325 78 221 1.0 4.0 0.00 0.00 0.00 81 1010.6
20260505152525 78 224 2.0 4.0 0.00 0.00 0.00 80 1010.5
20260505151525 78 219 2.0 7.0 0.00 0.00 0.00 81 1010.4
20260505150623 78 209 1.0 4.0 0.00 0.00 0.00 85 1010.3
20260505140523 76 209 2.0 3.0 0.00 0.00 0.00 85 1010.4
20260505123822 74 225 0.0 2.0 0.00 0.00 0.00 88 1009.9
20260505123724 74 225 0.0 0.0 0.00 0.00 0.00 88 1010.0
20260505122723 74 157 0.0 2.0 0.00 0.00 0.00 88 1009.5
20260505120723 74 205 0.0 3.0 0.00 0.00 0.00 88 1010.0
20260505115723 74 217 1.0 4.0 0.00 0.00 0.00 88 1010.0
20260505114723 73 185 0.0 0.0 0.00 0.00 0.00 87 1009.8
20260505113822 73 239 0.0 1.0 0.00 0.00 0.00 88 1009.9
20260505113723 73 247 0.0 0.0 0.00 0.00 0.00 88 1009.9
20260505112724 73 225 0.0 2.0 0.00 0.00 0.00 88 1009.6
20260505111724 73 197 0.0 2.0 0.00 0.00 0.00 88 1009.8
20260505110723 73 202 0.0 2.0 0.00 0.00 0.00 87 1010.1
20260505101923 73 225 0.0 1.0 0.00 0.00 0.00 87 1009.9
20260505100924 73 211 1.0 2.0 0.00 0.00 0.00 87 1009.7
20260505095923 73 225 0.0 2.0 0.00 0.00 0.00 86 1009.7
20260505095023 73 225 0.0 1.0 0.00 0.00 0.00 87 1009.6
20260505094024 73 225 0.0 1.0 0.00 0.00 0.00 86 1010.1
20260505093022 73 203 0.0 1.0 0.00 0.00 0.00 86 1010.1
20260505092924 73 221 2.0 4.0 0.00 0.00 0.00 87 1010.1
20260505091923 73 180 0.0 0.0 0.00 0.00 0.00 86 1009.9
20260505091822 73 180 0.0 0.0 0.00 0.00 0.00 86 1010.0
20260505090823 73 225 1.0 2.0 0.00 0.00 0.00 86 1010.1
20260505085823 73 225 0.0 3.0 0.00 0.00 0.00 85 1010.1
20260505085725 73 225 0.0 1.0 0.00 0.00 0.00 85 1010.1
20260505084723 73 207 0.0 1.0 0.00 0.00 0.00 85 1010.1
20260505083723 73 225 1.0 2.0 0.00 0.00 0.00 85 1010.0
20260505082722 73 225 0.0 2.0 0.00 0.00 0.00 84 1010.2
20260505081723 73 193 1.0 3.0 0.00 0.00 0.00 83 1010.2
20260505080722 73 214 1.0 3.0 0.00 0.00 0.00 84 1010.3
20260505075722 73 216 1.0 3.0 0.00 0.00 0.00 84 1010.4
20260505075623 73 225 1.0 2.0 0.00 0.00 0.00 84 1010.3
20260505074622 73 225 0.0 0.0 0.00 0.00 0.00 84 1010.4
20260505073623 73 224 0.0 1.0 0.00 0.00 0.00 84 1010.4
20260505072722 73 215 0.0 3.0 0.00 0.00 0.00 83 1010.5
20260505070823 72 225 1.0 3.0 0.00 0.00 0.00 84 1010.6
20260505065824 72 216 1.0 3.0 0.00 0.00 0.00 84 1010.9
20260505064822 72 190 0.0 2.0 0.00 0.00 0.00 84 1011.1
20260505063822 72 225 0.0 0.0 0.00 0.00 0.00 84 1011.0
20260505062823 71 225 0.0 0.0 0.00 0.00 0.00 84 1011.4
20260505061824 72 233 0.0 0.0 0.00 0.00 0.00 84 1011.3
20260505060823 72 204 0.0 1.0 0.00 0.00 0.00 83 1011.5
20260505054824 72 202 0.0 1.0 0.00 0.00 0.00 83 1011.5
20260505053823 71 204 0.0 3.0 0.00 0.00 0.00 82 1011.6
20260505052823 72 202 1.0 2.0 0.00 0.00 0.00 81 1011.4
20260505051823 71 226 0.0 2.0 0.00 0.00 0.00 81 1011.6
20260505050823 71 218 1.0 2.0 0.00 0.00 0.00 81 1011.5
20260505041736 72 200 0.0 1.0 0.00 0.00 0.00 80 1012.3
20260505040834 72 202 0.0 4.0 0.00 0.00 0.00 80 1012.0
20260505035836 72 225 0.0 1.0 0.00 0.00 0.00 79 1012.3
20260505034934 72 224 1.0 2.0 0.00 0.00 0.00 79 1012.2
20260505033934 72 221 0.0 2.0 0.00 0.00 0.00 78 1012.4
20260505032034 72 247 0.0 1.0 0.00 0.00 0.00 77 1012.3
20260505031033 72 202 1.0 2.0 0.00 0.00 0.00 77 1012.4
20260505030038 72 189 0.0 1.0 0.00 0.00 0.00 76 1012.3
20260505025034 72 145 0.0 1.0 0.00 0.00 0.00 75 1012.4
20260505024035 72 202 0.0 1.0 0.00 0.00 0.00 74 1012.3
20260505023037 73 186 0.0 1.0 0.00 0.00 0.00 74 1012.2
20260505022035 73 225 0.0 2.0 0.00 0.00 0.00 74 1012.2
20260505021036 73 225 0.0 0.0 0.00 0.00 0.00 72 1012.0
20260505020037 73 215 2.0 4.0 0.00 0.00 0.00 73 1012.0
20260505015036 74 225 0.0 2.0 0.00 0.00 0.00 73 1012.0
20260505014934 74 223 1.0 4.0 0.00 0.00 0.00 73 1011.8
20260505013934 73 195 1.0 2.0 0.00 0.00 0.00 72 1011.9
20260505012936 73 221 1.0 3.0 0.00 0.00 0.00 73 1011.8
20260505011934 74 195 0.0 1.0 0.00 0.00 0.00 72 1011.9
20260505010936 74 200 1.0 3.0 0.00 0.00 0.00 71 1011.8
20260505005933 74 217 0.0 2.0 0.00 0.00 0.00 70 1011.8
20260505004934 74 186 0.0 2.0 0.00 0.00 0.00 70 1011.7
20260505002935 75 205 0.0 3.0 0.00 0.00 0.00 68 1011.6
20260505001933 75 201 1.0 4.0 0.00 0.00 0.00 67 1011.6
20260504235936 76 134 0.0 0.0 0.00 0.00 0.00 66 1011.9
20260504234033 76 216 2.0 7.0 0.00 0.00 0.00 65 1011.8
20260504233039 77 223 2.0 4.0 0.00 0.00 0.00 65 1011.9
20260504232035 77 220 2.0 4.0 0.00 0.00 0.00 65 1012.1
20260504231034 77 132 0.0 1.0 0.00 0.00 0.00 64 1012.1
20260504230038 77 161 0.0 3.0 0.00 0.00 0.00 64 1012.4
20260504225035 77 197 0.0 2.0 0.00 0.00 0.00 64 1012.5
20260504223036 77 189 0.0 3.0 0.00 0.00 0.00 63 1012.7
20260504221035 77 184 1.0 4.0 0.00 0.00 0.00 62 1012.8
20260504220036 78 178 1.0 5.0 0.00 0.00 0.00 61 1012.8
20260504215036 78 202 1.0 2.0 0.00 0.00 0.00 60 1013.0
20260504214033 79 201 2.0 5.0 0.00 0.00 0.00 60 1013.2
20260504213036 79 180 0.0 0.0 0.00 0.00 0.00 59 1013.1
20260504212133 80 161 0.0 2.0 0.00 0.00 0.00 57 1013.1
20260504211136 81 213 1.0 2.0 0.00 0.00 0.00 56 1013.2
20260504205235 81 195 1.0 5.0 0.00 0.00 0.00 56 1013.3
20260504204235 81 220 1.0 3.0 0.00 0.00 0.00 54 1013.6
20260504203233 81 198 1.0 3.0 0.00 0.00 0.00 54 1013.7
20260504203134 81 216 2.0 5.0 0.00 0.00 0.00 54 1013.8
20260504202233 81 207 0.0 2.0 0.00 0.00 0.00 54 1013.8
20260504201235 81 211 2.0 5.0 0.00 0.00 0.00 53 1014.0
20260504200236 82 208 0.0 4.0 0.00 0.00 0.00 53 1014.0